Regional Weather Roundup
Issued by NWS Wilmington, NC

Home | Current Version | Previous Version | Text Only | Print | Product List | Glossary On
Versions: 1 2 3 4 5 6 7 8 9 10 11 12 13 14 15 16 17 18 19 20 21 22 23 24 25 26 27 28 29 30 31 32 33 34 35 36 37 38 39 40 41 42 43 44 45 46 47 48 49 50
000
ASUS42 KILM 280313
RWRILM
RWRILM
REGIONAL HOURLY WEATHER ROUNDUP
NATIONAL WEATHER SERVICE WILMINGTON NC
1100 PM EDT FRI MAR 27 2015

NOTE: "FAIR" INDICATES FEW OR NO CLOUDS BELOW 12,000 FEET WITH NO
SIGNIFICANT WEATHER AND/OR OBSTRUCTIONS TO VISIBILITY.

...............WFO WILMINGTON COUNTY WARNING AREA...............

......COASTAL NC AND SC COUNTIES......

CITY           SKY/WX    TMP DP  RH WIND       PRES   REMARKS
WILMINGTON     CLOUDY    44  40  85 N7        29.81R
SOUTHPORT      CLOUDY    44  40  85 N10       29.82R
N MYRTLE BEACH CLOUDY    46  42  86 NE10      29.82R
MYRTLE BEACH   CLOUDY    48  43  81 N12       29.85R

......INLAND NC AND SC COUNTIES.......

CITY           SKY/WX    TMP DP  RH WIND       PRES   REMARKS
LUMBERTON      CLOUDY    46  42  86 NE7       29.83R
ELIZABETHTOWN  MOCLDY    44  41  89 CALM      29.82S
WHITEVILLE     MOCLDY    45  40  85 CALM      29.82S
FLORENCE       CLOUDY    47  43  86 N3        29.84R
DARLINGTON     CLOUDY    46  41  81 W5        29.87R

....................REST OF NORTH CAROLINA......................

.........EASTERN NC.........

CITY           SKY/WX    TMP DP  RH WIND       PRES   REMARKS
CAPE HATTERAS  CLOUDY    43  39  86 N14G26    29.71F
JACKSONVILLE   CLOUDY    43  36  75 NW3       29.80R
MOREHEAD CITY  CLOUDY    44  41  89 N15       29.75S
KENANSVILLE    CLOUDY    43  40  89 N6        29.82S
NEW BERN       CLOUDY    43  39  86 N8        29.79R
ELIZABETH CITY CLOUDY    41  37  87 N12       29.77F

.........CENTRAL NC.........

CITY           SKY/WX    TMP DP  RH WIND       PRES   REMARKS
RALEIGH DURHAM MOCLDY    40  38  93 CALM      29.82S
ROCKY MOUNT    CLOUDY    42  37  82 NW9       29.81R
ROANOKE RAPIDS NOT AVBL
FAYETTEVILLE   CLOUDY    44  41  89 CALM      29.82R
HOFFMAN        MOCLDY    44  42  95 W1        29.87R

.........WESTERN NC.........

CITY           SKY/WX    TMP DP  RH WIND       PRES   REMARKS
CHARLOTTE      CLOUDY    46  36  68 NW5       29.85R
GREENSBORO     MOCLDY    43  37  79 W3        29.80S
HICKORY        NOT AVBL
BOONE          NOT AVBL
ASHEVILLE      NOT AVBL

.....................REST OF SOUTH CAROLINA.....................

.........EASTERN SC.........

CITY           SKY/WX    TMP DP  RH WIND       PRES   REMARKS
CHARLESTON     CLOUDY    51  46  83 N10       29.85R
BEAUFORT MCAS  CLOUDY    53  47  79 N8        29.86R
HILTON HEAD    MOCLDY    54  50  87 N6        29.87R

.........CENTRAL SC.........

CITY           SKY/WX    TMP DP  RH WIND       PRES   REMARKS
COLUMBIA       LGT RAIN  47  42  83 W5        29.87S
ORANGEBURG     CLOUDY    49  40  71 N7        29.89R
SUMTER SHAW    LGT RAIN  47  42  83 NW8       29.85R

.........WESTERN SC.........

CITY           SKY/WX    TMP DP  RH WIND       PRES   REMARKS
GREENVILLE     NOT AVBL
ROCK HILL      CLOUDY    45  36  70 W3        29.85R
ANDERSON       CLOUDY    46  32  58 NW8       29.90R
CLEMSON        NOT AVBL
GREENWOOD      CLOUDY    43  41  93 CALM      29.90R


...................COASTAL AND OFFSHORE REPORTS..................

................LOCAL PIERS AND NC RESERVE................


STATION/POSITION TIME  SKY/WX   TEMP    WIND        PRES    VSBY
                                AIR SEA DIR/SP/G
                 (UTC)          (F)     (DEG/KT/KT) (MB)    (MI)
JOHNY MRCER PIER 0200                   360/ 14/ 18 1007.5R
NC RESRV MASNBRO NOT AVBL
OCEAN CREST PIER 0302            44 54  320/  8/ 11 1008.9R
SPRINGMAID  PIER 0200            47 56  330/  9/ 13 1009.4R


................COASTAL AND OFFSHORE BUOYS................


STATION/POSITION TIME  SKY/WX   TEMP    WIND        PRES    VSBY
                                AIR SEA DIR/SP/G
                 (UTC)          (F)     (DEG/KT/KT) (MB)    (MI)
DIMNDSHOAL 41025 NOT AVBL
CAPE LOOKOUT     0300            44     360/ 17/ 22 1006.5S
ONSLOW BAY 41036 NOT AVBL
5 WRITEBCH 41038 0200            47 56   10/ 19/ 21 1007.4R
MASONBORO  41110 0219               56                N/A
WVE H/P(F/S)=  5/ 5 WND WVE H/P(F/S)=  5/ 5

WILM HARBR 41108 0211               60                N/A
WVE H/P(F/S)=  5/ 7 WND WVE H/P(F/S)=  5/ 7

27WRITEBCH 41037 0200            47 64   30/ 23/ 27 1007.9R
FRYING PAN 41013 0250            52 65  360/ 21/ 29 1007.6R
WVE H/P(F/S)=  8/ 6 WND WVE H/P(F/S)=  8/ 6 SWL H/P/D(F/S/D)=  2/ 20/13

SUNST NRSH 41024 0200            47      20/ 16/ 17   N/A
CAPRS NRSH 41029 0200            51     360/ 17/ 21   N/A
EDISTO     41004 0250            55 69  330/ 19/ 23 1008.8R
WVE H/P(F/S)=  6/ 6 WND WVE H/P(F/S)=  7/ 6 SWL H/P/D(F/S/D)=  2/14



..........OFFSHORE BUOYS BEYOND 100 NM OFFSHORE...........
.....IN A TRIANGLE---HAT TO BERMUDA TO BAHAMAS TO HAT.....


STATION/POSITION TIME  SKY/WX   TEMP    WIND        PRES    VSBY
                                AIR SEA DIR/SP/G
                 (UTC)          (F)     (DEG/KT/KT) (MB)    (MI)
150E HAT   41001 NOT AVBL
W BERMUDA  41048 0250            71 69  180/ 23/ 29 1011.2F
WVE H/P(F/S)=  8/ 8 WND WVE H/P(F/S)=  8/ 8 SWL H/P/D(F/S/D)=  2/170/12

ATLANTIC S 41049 0250            74 74  150/ 19/ 23 1022.6F
WVE H/P(F/S)=  6/ 7 WND WVE H/P(F/S)=  7/ 7

E BAHAMAS  41046 0250            78 79  150/ 16/ 17 1018.9F
WVE H/P(F/S)=  7/ 8 WND WVE H/P(F/S)=  5/ 6 SWL H/P/D(F/S/D)=  5/ 70/ 8

NE BAHAMAS 41047 0250            76 75  190/ 17/ 23 1015.4F
WVE H/P(F/S)=  6/ 6 WND WVE H/P(F/S)=  7/ 6 SWL H/P/D(F/S/D)=  2/330/11

120E CANVRL41010 0220            75 76  260/ 23/ 27 1010.1R

END



USA.gov is the U.S. government's official web portal to all federal, state and local government web resources and services.